,,PA_Meas_PMT16A,,PR_Meas_QMR101_102,,RH_Meas_QMH101,,SR_Meas_QMS101,,TA_Meas_QMH101,,GenWind,,GenWind,
time,status,PA,status,PR,status,RH,status,SR,status,TA,status,DirAvg,status,SpdAvg,
2014-01-30, 07:24:04,VALID,918.438,VALID,0,VALID,85.1307,VALID,77.5725,VALID,19.6653,VALID,108,VALID,2.36328,
2014-01-30, 07:25:04,VALID,918.531,VALID,0,VALID,84.9172,VALID,70.5888,VALID,19.7043,VALID,142,VALID,2.26406,
2014-01-30, 07:26:04,VALID,918.528,VALID,0,VALID,84.7038,VALID,75.8535,VALID,19.7028,VALID,129,VALID,1.91875,
2014-01-30, 07:27:04,VALID,918.496,VALID,0,VALID,84.5437,VALID,52.4313,VALID,19.7223,VALID,150,VALID,2.29258,
2014-01-30, 07:29:04,VALID,918.529,VALID,0,VALID,84.8791,VALID,55.9768,VALID,19.7028,VALID,123,VALID,1.63359,
2014-01-30, 07:30:04,VALID,918.543,VALID,0,VALID,85.024,VALID,64.8945,VALID,19.7238,VALID,142,VALID,1.65508,
2014-01-30, 07:31:04,VALID,918.579,VALID,0,VALID,84.4446,VALID,72.4153,VALID,19.7043,VALID,126,VALID,2.76133,
2014-01-30, 07:32:04,VALID,918.604,VALID,0,VALID,84.7266,VALID,69.0847,VALID,19.7433,VALID,114,VALID,2.00273,
2014-01-30, 07:33:04,VALID,918.616,VALID,0,VALID,84.7724,VALID,61.8861,VALID,19.7433,VALID,124,VALID,1.52656,
2014-01-30, 07:34:04,VALID,918.613,VALID,0,VALID,84.5742,VALID,63.4977,VALID,19.7433,VALID,126,VALID,2.825,
2014-01-30, 07:35:04,VALID,918.662,VALID,0,VALID,84.0482,VALID,65.4317,VALID,19.7418,VALID,139,VALID,2.51914,
2014-01-30, 07:36:04,VALID,918.643,VALID,0,VALID,84.0253,VALID,67.5805,VALID,19.8018,VALID,106,VALID,2.43594,
2014-01-30, 07:37:04,VALID,918.692,VALID,0,VALID,83.423,VALID,82.7297,VALID,19.8408,VALID,109,VALID,1.35117,
2014-01-30, 07:38:04,VALID,918.695,VALID,0,VALID,84.2387,VALID,134.731,VALID,19.8198,VALID,125,VALID,1.80313,
2014-01-30, 07:39:04,VALID,918.714,VALID,0,VALID,83.7585,VALID,135.913,VALID,19.8603,VALID,74,VALID,3.31406,
2014-01-30, 07:40:04,VALID,918.733,VALID,0,VALID,84.4522,VALID,139.673,VALID,19.8978,VALID,109,VALID,1.43242,
2014-01-30, 07:41:04,VALID,918.788,VALID,0,VALID,84.2921,VALID,138.277,VALID,19.9368,VALID,114,VALID,1.6082,
2014-01-30, 07:42:04,VALID,918.808,VALID,0,VALID,83.8271,VALID,90.0357,VALID,19.9968,VALID,107,VALID,1.575,
2014-01-30, 07:43:04,VALID,918.84,VALID,0,VALID,84.4141,VALID,85.9529,VALID,20.0538,VALID,133,VALID,1.39883,
2014-01-30, 07:44:04,VALID,918.852,VALID,0,VALID,83.7813,VALID,100.887,VALID,20.0733,VALID,111,VALID,1.19297,
2014-01-30, 07:45:04,VALID,918.884,VALID,0,VALID,83.1562,VALID,144.831,VALID,20.1139,VALID,122,VALID,1.575,
2014-01-30, 07:46:04,VALID,918.892,VALID,0,VALID,83.1486,VALID,83.3743,VALID,20.1513,VALID,135,VALID,2.53945,
2014-01-30, 07:47:04,VALID,918.914,VALID,0,VALID,83.5603,VALID,96.8045,VALID,20.1513,VALID,102,VALID,2.04648,
2014-01-30, 07:48:04,VALID,918.889,VALID,0,VALID,83.2858,VALID,100.028,VALID,20.1318,VALID,126,VALID,1.52109,
2014-01-30, 07:49:04,VALID,918.891,VALID,0,VALID,83.6441,VALID,130.111,VALID,20.1724,VALID,136,VALID,2.58242,
2014-01-30, 07:50:04,VALID,918.889,VALID,0,VALID,83.6136,VALID,128.607,VALID,20.1708,VALID,63,VALID,2.37773,
2014-01-30, 07:51:04,VALID,918.965,VALID,0,VALID,83.3925,VALID,87.9943,VALID,20.1903,VALID,153,VALID,1.52773,
2014-01-30, 07:52:04,VALID,918.983,VALID,0,VALID,83.0114,VALID,82.6222,VALID,20.1888,VALID,129,VALID,1.86875,
2014-01-30, 07:53:04,VALID,919.005,VALID,0,VALID,83.4307,VALID,75.6386,VALID,20.1903,VALID,94,VALID,1.79648,
2014-01-30, 07:54:04,VALID,919.024,VALID,0,VALID,84.3455,VALID,77.0353,VALID,20.1919,VALID,113,VALID,0.661328,
2014-01-30, 07:55:04,VALID,919.089,VALID,0,VALID,84.0329,VALID,92.5068,VALID,20.1513,VALID,135,VALID,1.76211,
2014-01-30, 07:56:04,VALID,919.079,VALID,0,VALID,83.9186,VALID,96.3747,VALID,20.1318,VALID,75,VALID,0.966406,
2014-01-30, 07:57:04,VALID,919.096,VALID,0,VALID,83.9109,VALID,77.0353,VALID,20.1108,VALID,130,VALID,1.13555,
2014-01-30, 07:58:04,VALID,919.089,VALID,0,VALID,84.6428,VALID,73.7046,VALID,20.1724,VALID,83,VALID,1.39375,
2014-01-30, 07:59:04,VALID,919.134,VALID,0,VALID,84.3226,VALID,70.8037,VALID,20.1123,VALID,125,VALID,1.05977,
2014-01-30, 08:00:04,VALID,919.179,VALID,0,VALID,83.7661,VALID,68.6549,VALID,20.0928,VALID,138,VALID,1.77539,
2014-01-30, 08:01:04,VALID,919.166,VALID,0,VALID,83.7051,VALID,73.1674,VALID,20.0718,VALID,136,VALID,1.1457,
2014-01-30, 08:02:04,VALID,919.169,VALID,0,VALID,84.6047,VALID,79.2916,VALID,20.0523,VALID,111,VALID,1.52422,
2014-01-30, 08:03:04,VALID,919.178,VALID,0,VALID,83.5374,VALID,80.1511,VALID,20.0538,VALID,118,VALID,1.83047,
2014-01-30, 08:04:04,VALID,919.183,VALID,0,VALID,83.1334,VALID,84.986,VALID,20.0538,VALID,123,VALID,1.69336,
2014-01-30, 08:05:04,VALID,919.207,VALID,0,VALID,83.6594,VALID,86.705,VALID,20.0928,VALID,110,VALID,1.18242,
2014-01-30, 08:06:04,VALID,919.166,VALID,0,VALID,82.836,VALID,84.986,VALID,20.1139,VALID,41,VALID,3.01289,
2014-01-30, 08:07:04,VALID,919.184,VALID,0,VALID,82.9809,VALID,84.8785,VALID,20.1108,VALID,136,VALID,1.83867,
2014-01-30, 08:08:04,VALID,919.222,VALID,0,VALID,83.3925,VALID,82.6222,VALID,20.1303,VALID,133,VALID,1.96406,
2014-01-30, 08:09:04,VALID,919.229,VALID,0,VALID,83.3697,VALID,81.7627,VALID,20.1513,VALID,107,VALID,1.27461,
2014-01-30, 08:10:04,VALID,919.278,VALID,0,VALID,82.9123,VALID,84.1264,VALID,20.1513,VALID,101,VALID,1.11055,
2014-01-30, 08:11:04,VALID,919.28,VALID,0,VALID,83.1257,VALID,101.747,VALID,20.1903,VALID,139,VALID,1.89023,
2014-01-30, 08:12:04,VALID,919.296,VALID,0,VALID,82.7979,VALID,114.747,VALID,20.1693,VALID,158,VALID,1.69453,
2014-01-30, 08:13:04,VALID,919.296,VALID,0,VALID,83.4002,VALID,108.301,VALID,20.1888,VALID,120,VALID,1.31211,
2014-01-30, 08:14:04,VALID,919.343,VALID,0,VALID,82.4091,VALID,106.259,VALID,20.1903,VALID,124,VALID,2.56211,
2014-01-30, 08:15:04,VALID,919.316,VALID,0,VALID,81.9975,VALID,95.6226,VALID,20.2098,VALID,130,VALID,1.25273,
2014-01-30, 08:16:04,VALID,919.383,VALID,0,VALID,83.5831,VALID,85.8455,VALID,20.2684,VALID,87,VALID,2.56484,
2014-01-30, 08:17:04,VALID,919.368,VALID,0,VALID,81.8221,VALID,91.2175,VALID,20.2293,VALID,88,VALID,3.00664,
2014-01-30, 08:18:04,VALID,919.346,VALID,0,VALID,81.662,VALID,86.8125,VALID,20.2083,VALID,107,VALID,2.86992,
2014-01-30, 08:19:04,VALID,919.359,VALID,0,VALID,82.7217,VALID,87.672,VALID,20.2293,VALID,73,VALID,1.98633,
2014-01-30, 08:20:04,VALID,919.375,VALID,0,VALID,82.8665,VALID,106.582,VALID,20.1903,VALID,65,VALID,2.3125,
2014-01-30, 08:21:04,VALID,919.369,VALID,0,VALID,82.5845,VALID,121.516,VALID,20.1903,VALID,125,VALID,1.82383,
2014-01-30, 08:22:04,VALID,919.322,VALID,0,VALID,82.4854,VALID,110.235,VALID,20.2098,VALID,178,VALID,1.23672,
2014-01-30, 08:23:04,VALID,919.346,VALID,0,VALID,82.0737,VALID,118.615,VALID,20.2489,VALID,134,VALID,0.903516,
2014-01-30, 08:24:04,VALID,919.367,VALID,0,VALID,83.2782,VALID,114.103,VALID,20.3089,VALID,128,VALID,1.56016,
2014-01-30, 08:25:04,VALID,919.392,VALID,0,VALID,82.9123,VALID,105.185,VALID,20.3074,VALID,127,VALID,1.19766,
2014-01-30, 08:26:04,VALID,919.375,VALID,0,VALID,83.2782,VALID,119.904,VALID,20.3074,VALID,124,VALID,0.865625,
2014-01-30, 08:27:04,VALID,919.394,VALID,0,VALID,80.3889,VALID,154.285,VALID,20.3074,VALID,143,VALID,2.81875,
2014-01-30, 08:28:04,VALID,919.395,VALID,0,VALID,81.0369,VALID,135.806,VALID,20.3464,VALID,133,VALID,1.02422,
2014-01-30, 08:29:04,VALID,919.406,VALID,0,VALID,81.845,VALID,102.714,VALID,20.3674,VALID,66,VALID,2.15352,
2014-01-30, 08:30:04,VALID,919.424,VALID,0,VALID,81.0064,VALID,95.8375,VALID,20.3464,VALID,123,VALID,1.59687,
2014-01-30, 08:31:04,VALID,919.421,VALID,0,VALID,81.5705,VALID,101.21,VALID,20.3464,VALID,109,VALID,1.37188,
2014-01-30, 08:32:04,VALID,919.432,VALID,0,VALID,81.0064,VALID,114.425,VALID,20.3284,VALID,157,VALID,1.68008,
2014-01-30, 08:33:04,VALID,919.435,VALID,0,VALID,81.8374,VALID,121.838,VALID,20.3284,VALID,105,VALID,1.35469,
2014-01-30, 08:34:04,VALID,919.449,VALID,0,VALID,81.7154,VALID,131.938,VALID,20.3674,VALID,93,VALID,1.6457,
2014-01-30, 08:35:04,VALID,919.444,VALID,0,VALID,82.2795,VALID,144.293,VALID,20.3464,VALID,118,VALID,1.89336,
2014-01-30, 08:36:04,VALID,919.479,VALID,0,VALID,82.2948,VALID,133.334,VALID,20.3674,VALID,91,VALID,1.19805,
2014-01-30, 08:37:04,VALID,919.492,VALID,0,VALID,82.3786,VALID,121.194,VALID,20.3659,VALID,95,VALID,1.12734,
2014-01-30, 08:38:04,VALID,919.476,VALID,0,VALID,81.9746,VALID,130.219,VALID,20.3659,VALID,98,VALID,1.4207,
2014-01-30, 08:39:04,VALID,919.521,VALID,0,VALID,82.6683,VALID,134.731,VALID,20.4064,VALID,83,VALID,1.225,
2014-01-30, 08:40:04,VALID,919.496,VALID,0,VALID,81.1818,VALID,135.913,VALID,20.3464,VALID,84,VALID,2.69492,
2014-01-30, 08:41:04,VALID,919.517,VALID,0,VALID,80.5871,VALID,123.772,VALID,20.3674,VALID,120,VALID,3.06484,
2014-01-30, 08:42:04,VALID,919.484,VALID,0,VALID,81.5019,VALID,111.309,VALID,20.3269,VALID,112,VALID,1.43984,
2014-01-30, 08:43:04,VALID,919.517,VALID,0,VALID,82.028,VALID,102.929,VALID,20.3074,VALID,132,VALID,1.45977,
2014-01-30, 08:44:04,VALID,919.528,VALID,0,VALID,81.3571,VALID,114.317,VALID,20.2879,VALID,105,VALID,1.35312,
2014-01-30, 08:45:04,VALID,919.552,VALID,0,VALID,81.1741,VALID,139.673,VALID,20.2879,VALID,128,VALID,1.62812,
2014-01-30, 08:46:04,VALID,919.569,VALID,0,VALID,81.7611,VALID,157.509,VALID,20.2879,VALID,109,VALID,2.35352,
2014-01-30, 08:47:04,VALID,919.577,VALID,0,VALID,81.0598,VALID,166.319,VALID,20.3074,VALID,63,VALID,2.22578,
2014-01-30, 08:48:04,VALID,919.592,VALID,0,VALID,81.8984,VALID,155.682,VALID,20.2863,VALID,93,VALID,1.51484,
2014-01-30, 08:49:04,VALID,919.64,VALID,0,VALID,81.967,VALID,139.781,VALID,20.3284,VALID,83,VALID,1.29492,
2014-01-30, 08:50:04,VALID,919.663,VALID,0,VALID,82.554,VALID,132.153,VALID,20.3659,VALID,95,VALID,1.29805,
2014-01-30, 08:51:04,VALID,919.686,VALID,0,VALID,81.9746,VALID,136.343,VALID,20.3659,VALID,88,VALID,2.32461,
2014-01-30, 08:52:04,VALID,919.658,VALID,0,VALID,81.1665,VALID,143.219,VALID,20.2879,VALID,80,VALID,4.99258,
2014-01-30, 08:53:04,VALID,919.756,VALID,0,VALID,82.3786,VALID,148.269,VALID,20.2489,VALID,91,VALID,2.56289,
2014-01-30, 08:54:04,VALID,919.773,VALID,0,VALID,82.0508,VALID,145.905,VALID,20.2114,VALID,122,VALID,1.81406,
2014-01-30, 08:55:04,VALID,919.795,VALID,0,VALID,82.4091,VALID,144.293,VALID,20.1498,VALID,108,VALID,3.60078,
2014-01-30, 08:56:04,VALID,919.755,VALID,0,VALID,82.1576,VALID,135.268,VALID,20.1529,VALID,74,VALID,3.99922,
2014-01-30, 08:57:04,VALID,919.818,VALID,0,VALID,81.784,VALID,142.574,VALID,20.0928,VALID,78,VALID,2.49023,
2014-01-30, 08:58:04,VALID,919.782,VALID,0,VALID,81.441,VALID,163.418,VALID,20.0733,VALID,84,VALID,4.61094,
2014-01-30, 08:59:04,VALID,919.877,VALID,0,VALID,81.9898,VALID,176.956,VALID,20.0733,VALID,109,VALID,1.95547,
2014-01-30, 09:00:04,VALID,919.827,VALID,0,VALID,82.4777,VALID,158.153,VALID,20.1123,VALID,81,VALID,1.89297,
2014-01-30, 09:01:04,VALID,919.849,VALID,0,VALID,82.4854,VALID,147.624,VALID,20.1108,VALID,94,VALID,2.92656,
2014-01-30, 09:02:04,VALID,919.859,VALID,0,VALID,81.6087,VALID,161.269,VALID,20.1919,VALID,92,VALID,3.01563,
2014-01-30, 09:03:04,VALID,919.84,VALID,0,VALID,82.2795,VALID,174.377,VALID,20.1903,VALID,72,VALID,2.45,
2014-01-30, 09:04:04,VALID,919.876,VALID,0,VALID,81.2504,VALID,158.583,VALID,20.2098,VALID,100,VALID,2.51406,
2014-01-30, 09:05:04,VALID,919.882,VALID,0,VALID,81.3723,VALID,155.897,VALID,20.2293,VALID,107,VALID,2.80898,
2014-01-30, 09:06:04,VALID,919.874,VALID,0,VALID,81.7078,VALID,158.905,VALID,20.2473,VALID,62,VALID,2.59453,
2014-01-30, 09:07:04,VALID,919.9,VALID,0,VALID,81.38,VALID,157.831,VALID,20.2879,VALID,103,VALID,2.57031,
2014-01-30, 09:08:04,VALID,919.883,VALID,0,VALID,81.136,VALID,150.955,VALID,20.3074,VALID,89,VALID,2.40859,
2014-01-30, 09:09:04,VALID,919.895,VALID,0,VALID,80.6786,VALID,125.921,VALID,20.3074,VALID,90,VALID,1.6793,
2014-01-30, 09:10:04,VALID,919.87,VALID,0,VALID,81.4105,VALID,130.434,VALID,20.3269,VALID,99,VALID,1.975,
2014-01-30, 09:11:04,VALID,919.883,VALID,0,VALID,82.2795,VALID,152.566,VALID,20.3659,VALID,100,VALID,1.70391,
2014-01-30, 09:12:04,VALID,919.892,VALID,0,VALID,82.9275,VALID,168.897,VALID,20.4049,VALID,89,VALID,1.68164,
2014-01-30, 09:13:04,VALID,919.869,VALID,0,VALID,82.4625,VALID,171.691,VALID,20.3838,VALID,83,VALID,2.48125,
2014-01-30, 09:14:04,VALID,919.852,VALID,0,VALID,79.8553,VALID,155.467,VALID,20.4049,VALID,100,VALID,2.98594,
2014-01-30, 09:15:04,VALID,919.887,VALID,0,VALID,80.4118,VALID,165.459,VALID,20.3838,VALID,95,VALID,2.93672,
2014-01-30, 09:16:04,VALID,919.892,VALID,0,VALID,81.319,VALID,164.815,VALID,20.3628,VALID,80,VALID,1.8125,
2014-01-30, 09:17:04,VALID,919.891,VALID,0,VALID,79.6266,VALID,157.509,VALID,20.4244,VALID,57,VALID,2.4375,
2014-01-30, 09:18:04,VALID,919.912,VALID,0,VALID,78.0714,VALID,183.08,VALID,20.4228,VALID,91,VALID,1.13359,
2014-01-30, 09:19:04,VALID,919.922,VALID,0,VALID,80.0078,VALID,150.955,VALID,20.4618,VALID,84,VALID,2.36836,
2014-01-30, 09:20:04,VALID,919.913,VALID,0,VALID,80.1221,VALID,146.657,VALID,20.5024,VALID,59,VALID,1.81914,
2014-01-30, 09:21:04,VALID,919.957,VALID,0,VALID,80.671,VALID,165.782,VALID,20.543,VALID,94,VALID,2.54492,
2014-01-30, 09:22:04,VALID,919.981,VALID,0,VALID,80.5109,VALID,171.369,VALID,20.5414,VALID,76,VALID,2.1832,
2014-01-30, 09:23:04,VALID,919.961,VALID,0,VALID,80.206,VALID,170.724,VALID,20.5594,VALID,122,VALID,1.60117,
2014-01-30, 09:24:04,VALID,919.989,VALID,0,VALID,80.9226,VALID,194.791,VALID,20.6194,VALID,82,VALID,1.44102,
2014-01-30, 09:25:04,VALID,919.991,VALID,0,VALID,81.1284,VALID,223.8,VALID,20.717,VALID,45,VALID,0.988672,
2014-01-30, 09:26:04,VALID,919.981,VALID,0,VALID,79.5046,VALID,198.551,VALID,20.7544,VALID,137,VALID,2.06523,
2014-01-30, 09:27:04,VALID,919.99,VALID,0,VALID,78.9252,VALID,166.749,VALID,20.7755,VALID,119,VALID,2.97031,
2014-01-30, 09:28:04,VALID,919.968,VALID,0,VALID,80.023,VALID,165.567,VALID,20.7739,VALID,86,VALID,0.641406,
2014-01-30, 09:29:04,VALID,919.963,VALID,0,VALID,79.192,VALID,198.874,VALID,20.8535,VALID,60,VALID,1.73086,
2014-01-30, 09:30:04,VALID,919.954,VALID,0,VALID,78.6813,VALID,206.072,VALID,20.8714,VALID,94,VALID,1.69531,
2014-01-30, 09:31:04,VALID,919.916,VALID,0,VALID,78.1781,VALID,540.859,VALID,20.873,VALID,75,VALID,2.35938,
2014-01-30, 09:32:04,VALID,919.916,VALID,0,VALID,78.2315,VALID,250.875,VALID,20.93,VALID,140,VALID,1.73594,
2014-01-30, 09:33:04,VALID,919.894,VALID,0,VALID,76.4019,VALID,262.371,VALID,21.0291,VALID,159,VALID,2.58164,
2014-01-30, 09:34:04,VALID,919.897,VALID,0,VALID,77.1871,VALID,198.014,VALID,21.0681,VALID,135,VALID,1.99727,
2014-01-30, 09:35:04,VALID,919.894,VALID,0,VALID,76.1884,VALID,231.858,VALID,21.1266,VALID,161,VALID,2.31133,
2014-01-30, 09:36:04,VALID,919.811,VALID,0,VALID,75.2736,VALID,304.381,VALID,21.1071,VALID,114,VALID,1.92109,
2014-01-30, 09:37:04,VALID,919.825,VALID,0,VALID,75.1593,VALID,197.799,VALID,21.2047,VALID,142,VALID,2.30312,
2014-01-30, 09:38:04,VALID,919.828,VALID,0,VALID,75.4566,VALID,232.825,VALID,21.2031,VALID,76,VALID,2.46953,
2014-01-30, 09:39:04,VALID,919.8,VALID,0,VALID,76.6535,VALID,547.198,VALID,21.2827,VALID,106,VALID,2.11055,
2014-01-30, 09:40:04,VALID,919.766,VALID,0,VALID,76.4934,VALID,563.744,VALID,21.4177,VALID,142,VALID,1.58555,
2014-01-30, 09:41:04,VALID,919.763,VALID,0,VALID,74.6332,VALID,586.521,VALID,21.5932,VALID,132,VALID,2.52109,
2014-01-30, 09:42:04,VALID,919.755,VALID,0,VALID,71.5763,VALID,574.703,VALID,21.7493,VALID,164,VALID,1.97187,
2014-01-30, 09:43:04,VALID,919.751,VALID,0,VALID,72.1404,VALID,355.093,VALID,21.9054,VALID,163,VALID,2.09102,
2014-01-30, 09:44:04,VALID,919.751,VALID,0,VALID,72.0489,VALID,579.86,VALID,21.9054,VALID,145,VALID,3.05039,
2014-01-30, 09:45:04,VALID,919.75,VALID,0,VALID,71.7211,VALID,583.728,VALID,21.9444,VALID,158,VALID,2.22109,
2014-01-30, 09:46:04,VALID,919.731,VALID,0,VALID,71.6677,VALID,595.546,VALID,22.0208,VALID,168,VALID,2.25078,
2014-01-30, 09:47:04,VALID,919.773,VALID,0,VALID,73.5278,VALID,601.563,VALID,22.2762,VALID,95,VALID,0.985156,
2014-01-30, 09:48:04,VALID,919.738,VALID,0,VALID,71.1798,VALID,571.802,VALID,22.3933,VALID,152,VALID,2.38984,
2014-01-30, 09:49:04,VALID,919.72,VALID,0,VALID,69.2816,VALID,595.546,VALID,22.3152,VALID,161,VALID,2.45781,
2014-01-30, 09:50:04,VALID,919.709,VALID,0,VALID,69.7771,VALID,590.497,VALID,22.3542,VALID,143,VALID,2.13945,
2014-01-30, 09:51:04,VALID,919.779,VALID,0,VALID,70.7148,VALID,592.645,VALID,22.4323,VALID,77,VALID,2.51758,
2014-01-30, 09:52:04,VALID,919.744,VALID,0,VALID,70.7224,VALID,602.852,VALID,22.4323,VALID,125,VALID,2.83711,
2014-01-30, 09:53:04,VALID,919.768,VALID,0,VALID,71.2256,VALID,609.299,VALID,22.4501,VALID,98,VALID,3.56211,
2014-01-30, 09:54:04,VALID,919.769,VALID,0,VALID,69.0224,VALID,613.811,VALID,22.4713,VALID,104,VALID,1.62383,
2014-01-30, 09:55:04,VALID,919.778,VALID,0,VALID,67.9551,VALID,619.076,VALID,22.5689,VALID,157,VALID,3.31914,
2014-01-30, 09:56:04,VALID,919.813,VALID,0,VALID,67.9856,VALID,614.993,VALID,22.6062,VALID,164,VALID,1.94414,
2014-01-30, 09:57:04,VALID,919.758,VALID,0,VALID,67.0937,VALID,611.77,VALID,22.5689,VALID,140,VALID,3.2707,
2014-01-30, 09:58:04,VALID,919.792,VALID,0,VALID,66.743,VALID,620.902,VALID,22.6079,VALID,150,VALID,2.52187,
2014-01-30, 09:59:04,VALID,919.813,VALID,0,VALID,67.208,VALID,623.696,VALID,22.5477,VALID,149,VALID,3.54063,
2014-01-30, 10:00:04,VALID,919.783,VALID,0,VALID,66.2856,VALID,603.819,VALID,22.4501,VALID,141,VALID,3.71836,
2014-01-30, 10:01:04,VALID,919.734,VALID,0,VALID,68.4202,VALID,614.778,VALID,22.3737,VALID,91,VALID,3.9457,
2014-01-30, 10:02:04,VALID,919.766,VALID,0,VALID,67.391,VALID,633.688,VALID,22.3313,VALID,144,VALID,3.03633,
2014-01-30, 10:03:04,VALID,919.762,VALID,0,VALID,70.5776,VALID,641.746,VALID,22.3508,VALID,134,VALID,2.27031,
2014-01-30, 10:04:04,VALID,919.773,VALID,0,VALID,67.1547,VALID,646.366,VALID,22.5086,VALID,155,VALID,2.28125,
2014-01-30, 10:05:04,VALID,919.73,VALID,0,VALID,69.617,VALID,663.127,VALID,22.5867,VALID,152,VALID,1.71289,
2014-01-30, 10:06:04,VALID,919.795,VALID,0,VALID,68.7785,VALID,667.747,VALID,22.6062,VALID,149,VALID,2.63984,
2014-01-30, 10:07:04,VALID,919.757,VALID,0,VALID,68.2143,VALID,653.457,VALID,22.6843,VALID,163,VALID,2.25742,
2014-01-30, 10:08:04,VALID,919.799,VALID,0,VALID,66.5905,VALID,675.375,VALID,22.6647,VALID,161,VALID,2.01563,
2014-01-30, 10:09:04,VALID,919.769,VALID,0,VALID,68.039,VALID,453.724,VALID,22.8404,VALID,154,VALID,1.16602,
2014-01-30, 10:10:04,VALID,919.736,VALID,0,VALID,65.447,VALID,667.854,VALID,22.9948,VALID,115,VALID,2.52891,
2014-01-30, 10:11:04,VALID,919.769,VALID,0,VALID,65.2564,VALID,669.143,VALID,22.9185,VALID,157,VALID,3.48594,
2014-01-30, 10:12:04,VALID,919.784,VALID,0,VALID,68.8547,VALID,675.16,VALID,22.9362,VALID,48,VALID,1.88867,
2014-01-30, 10:13:04,VALID,919.788,VALID,0,VALID,68.1,VALID,675.375,VALID,23.229,VALID,108,VALID,1.14414,
2014-01-30, 10:14:04,VALID,919.774,VALID,0,VALID,67.3376,VALID,644.002,VALID,23.1935,VALID,98,VALID,2.84492,
2014-01-30, 10:15:04,VALID,919.808,VALID,0,VALID,65.9502,VALID,660.011,VALID,23.1136,VALID,156,VALID,2.28984,
2014-01-30, 10:16:04,VALID,919.8,VALID,0,VALID,64.2349,VALID,683.433,VALID,23.2325,VALID,131,VALID,2.21953,
2014-01-30, 10:17:04,VALID,919.795,VALID,0,VALID,66.7354,VALID,701.376,VALID,23.3106,VALID,136,VALID,1.55586,
2014-01-30, 10:18:04,VALID,919.736,VALID,0,VALID,65.7367,VALID,703.847,VALID,23.2893,VALID,159,VALID,1.98555,
2014-01-30, 10:19:04,VALID,919.775,VALID,0,VALID,64.4407,VALID,704.599,VALID,23.3283,VALID,152,VALID,2.52461,
2014-01-30, 10:20:04,VALID,919.717,VALID,0,VALID,63.9071,VALID,617.894,VALID,23.2893,VALID,166,VALID,2.35938,
2014-01-30, 10:21:04,VALID,919.767,VALID,0,VALID,64.7838,VALID,636.374,VALID,23.1136,VALID,152,VALID,1.93672,
2014-01-30, 10:22:04,VALID,919.813,VALID,0,VALID,67.6045,VALID,602.315,VALID,23.1722,VALID,117,VALID,1.77578,
2014-01-30, 10:23:04,VALID,919.743,VALID,0,VALID,63.8232,VALID,529.792,VALID,23.1136,VALID,81,VALID,2.8082,
2014-01-30, 10:24:04,VALID,919.764,VALID,0,VALID,62.7941,VALID,435.781,VALID,23.0746,VALID,145,VALID,3.75469,
2014-01-30, 10:25:04,VALID,919.83,VALID,0,VALID,64.6389,VALID,347.572,VALID,23.0941,VALID,127,VALID,2.31914,
2014-01-30, 10:26:04,VALID,919.797,VALID,0,VALID,64.5398,VALID,293.314,VALID,23.0746,VALID,171,VALID,4.32852,
2014-01-30, 10:27:04,VALID,919.811,VALID,0,VALID,66.0493,VALID,249.908,VALID,22.9575,VALID,125,VALID,2.80938,
2014-01-30, 10:28:04,VALID,919.832,VALID,0,VALID,65.9807,VALID,230.139,VALID,23.0551,VALID,107,VALID,2.35391,
2014-01-30, 10:29:04,VALID,919.849,VALID,0,VALID,65.1421,VALID,219.395,VALID,22.9575,VALID,128,VALID,3.5,
2014-01-30, 10:30:04,VALID,919.786,VALID,0,VALID,63.869,VALID,216.601,VALID,22.9167,VALID,114,VALID,3.41953,
2014-01-30, 10:31:04,VALID,919.759,VALID,0,VALID,66.6515,VALID,209.295,VALID,22.9575,VALID,133,VALID,3.01758,
2014-01-30, 10:32:04,VALID,919.724,VALID,0,VALID,63.6708,VALID,203.601,VALID,22.977,VALID,168,VALID,2.4332,
2014-01-30, 10:33:04,VALID,919.739,VALID,0,VALID,65.9959,VALID,207.361,VALID,23.1527,VALID,102,VALID,1.6293,
2014-01-30, 10:34:04,VALID,919.74,VALID,0,VALID,63.8232,VALID,219.287,VALID,23.3674,VALID,139,VALID,2.70117,
2014-01-30, 10:35:04,VALID,919.739,VALID,0,VALID,62.8169,VALID,260.33,VALID,23.2307,VALID,134,VALID,2.37266,
2014-01-30, 10:36:04,VALID,919.755,VALID,0,VALID,64.6694,VALID,258.611,VALID,23.1509,VALID,136,VALID,2.31055,
2014-01-30, 10:37:04,VALID,919.748,VALID,0,VALID,65.5995,VALID,259.148,VALID,23.2307,VALID,101,VALID,1.87227,
2014-01-30, 10:38:04,VALID,919.728,VALID,0,VALID,64.6771,VALID,260.545,VALID,23.2502,VALID,130,VALID,1.03555,
2014-01-30, 10:39:04,VALID,919.687,VALID,0,VALID,64.8981,VALID,280.636,VALID,23.3851,VALID,160,VALID,1.56172,
2014-01-30, 10:40:04,VALID,919.75,VALID,0,VALID,65.0582,VALID,380.771,VALID,23.5998,VALID,146,VALID,2.07617,
2014-01-30, 10:41:04,VALID,919.762,VALID,0,VALID,64.6694,VALID,531.082,VALID,23.6992,VALID,119,VALID,2.01094,
2014-01-30, 10:42:04,VALID,919.716,VALID,0,VALID,61.925,VALID,653.994,VALID,23.6602,VALID,125,VALID,1.39258,
2014-01-30, 10:43:04,VALID,919.738,VALID,0,VALID,62.9847,VALID,733.178,VALID,23.6779,VALID,119,VALID,4.5668,
2014-01-30, 10:44:04,VALID,919.764,VALID,0,VALID,62.2452,VALID,763.369,VALID,23.4046,VALID,122,VALID,4.87227,
2014-01-30, 10:45:04,VALID,919.683,VALID,0,VALID,62.9999,VALID,744.03,VALID,23.2094,VALID,127,VALID,4.10703,
2014-01-30, 10:46:04,VALID,919.685,VALID,0,VALID,65.8434,VALID,789.8,VALID,23.2698,VALID,115,VALID,1.85703,
2014-01-30, 10:47:04,VALID,919.625,VALID,0,VALID,66.4381,VALID,789.478,VALID,23.4845,VALID,93,VALID,3.33086,
2014-01-30, 10:48:04,VALID,919.64,VALID,0,VALID,64.4789,VALID,785.502,VALID,23.6193,VALID,128,VALID,3.44453,
2014-01-30, 10:49:04,VALID,919.638,VALID,0,VALID,66.4,VALID,782.494,VALID,23.7364,VALID,100,VALID,1.45117,
2014-01-30, 10:50:04,VALID,919.618,VALID,0,VALID,66.339,VALID,753.592,VALID,23.7364,VALID,110,VALID,2.05703,
2014-01-30, 10:51:04,VALID,919.566,VALID,0,VALID,64.2425,VALID,774.866,VALID,23.6974,VALID,60,VALID,3.28789,
2014-01-30, 10:52:04,VALID,919.578,VALID,0,VALID,64.3874,VALID,783.676,VALID,23.5803,VALID,114,VALID,2.96914,
2014-01-30, 10:53:04,VALID,919.569,VALID,0,VALID,64.4941,VALID,761.221,VALID,23.6779,VALID,146,VALID,1.66172,
2014-01-30, 10:54:04,VALID,919.587,VALID,0,VALID,64.6085,VALID,755.849,VALID,23.8926,VALID,149,VALID,1.60352,
2014-01-30, 10:55:04,VALID,919.533,VALID,0,VALID,63.5259,VALID,767.452,VALID,24.0097,VALID,88,VALID,3.07305,
2014-01-30, 10:56:04,VALID,919.489,VALID,0,VALID,60.9111,VALID,789.692,VALID,23.8145,VALID,125,VALID,3.70859,
2014-01-30, 10:57:04,VALID,919.584,VALID,0,VALID,63.6708,VALID,773.361,VALID,23.6193,VALID,140,VALID,2.69492,
2014-01-30, 10:58:04,VALID,919.415,VALID,0,VALID,63.808,VALID,788.081,VALID,23.6974,VALID,95,VALID,3.16484,
2014-01-30, 10:59:04,VALID,919.542,VALID,0,VALID,64.4484,VALID,783.676,VALID,23.504,VALID,85,VALID,4.57031,